Regional Weather Roundup
Issued by NWS

Home | Current Version | Previous Version | Graphics & Text | Print | Product List | Glossary On
Versions: 1 2 3 4 5 6 7 8 9 10 11 12 13 14 15 16 17 18 19 20 21 22 23 24 25 26 27 28 29 30 31 32 33 34 35 36 37 38 39 40 41 42 43 44 45 46 47 48 49 50
000
ASUS43 KLOT 241208
RWRIL

ILLINOIS REGIONAL WEATHER ROUNDUP
NATIONAL WEATHER SERVICE CHICAGO/ROMEOVILLE IL
600 AM CST TUE JAN 24 2017

NOTE: "FAIR" INDICATES FEW OR NO CLOUDS BELOW 12,000 FEET WITH NO
SIGNIFICANT WEATHER AND/OR OBSTRUCTIONS TO VISIBILITY.

* THESE STATIONS ARE NOT UNDER NWS QUALITY CONTROL. THEY ALSO MAY NOT
  REPORT WEATHER SUCH AS PRECIPITATION OR FOG.

ILZ001-002-007-009-015-016-024-241300-
NORTHWEST ILLINOIS

CITY           SKY/WX    TMP DP  RH WIND       PRES   REMARKS
MOLINE         CLOUDY    34  30  85 W3        29.88S
6HR MIN TEMP:  34; 6HR MAX TEMP:  35;

STERLING*      CLOUDY    34  33  96 W5        29.89R WCI  30
SAVANNA*       CLOUDY    33  32  95 CALM      29.89R
$$

ILZ003-004-008-010-011-017-018-241300-
NORTH CENTRAL ILLINOIS

CITY           SKY/WX    TMP DP  RH WIND       PRES   REMARKS
ROCKFORD       CLOUDY    36  30  79 NW7       29.89R WCI  30
6HR MIN TEMP:  36; 6HR MAX TEMP:  38;

FREEPORT*      CLOUDY    33  31  91 W3        29.89R
ROCHELLE*      CLOUDY    35  32  90 CALM      29.88R
DE KALB*       CLOUDY    35  32  90 NW6       29.87R WCI  30
PERU*          CLOUDY    34  32  93 NW3       29.88S FOG
$$

ILZ005-006-012>014-019>023-241300-
NORTHEAST ILLINOIS

CITY           SKY/WX    TMP DP  RH WIND       PRES   REMARKS
CHICAGO-OHARE  CLOUDY    36  32  85 NW9       29.85R WCI  29
6HR MIN TEMP:  36; 6HR MAX TEMP:  38;

CHICAGO-MIDWAY CLOUDY    38  32  79 NW7       29.86R WCI  33
6HR MIN TEMP:  38; 6HR MAX TEMP:  39;

AURORA         CLOUDY    36  32  85 W8        29.87R WCI  30
6HR MIN TEMP:  36; 6HR MAX TEMP:  38;

LANSING*       CLOUDY    37  35  90 W7        29.87R WCI  32
JOLIET*        CLOUDY    38  34  83 W5        29.88R WCI  35
WAUKEGAN       CLOUDY    36  32  85 NW6       29.84R WCI  31
6HR MIN TEMP:  36; 6HR MAX TEMP:  37;

DUPAGE AIRPORT CLOUDY    36  30  79 NW7       29.86R WCI  30
6HR MIN TEMP:  36; 6HR MAX TEMP:  38;

KANKAKEE*      CLOUDY    37  33  84 CALM      29.88R
WHEELING       CLOUDY    36  32  85 NW7       29.87R WCI  30
6HR MIN TEMP:  36; 6HR MAX TEMP:  38;

MORRIS*        CLOUDY    37  32  84 CALM      29.88R
ROMEOVILLE*    CLOUDY    36  35  94 NW6       29.87R WCI  31
NORTHERLY ISL    N/A     37  33  85 NW7         N/A  WCI  32
$$

LMZ740>746-241300-
SOUTHERN LAKE MICHIGAN

STATION/POSITION SKY/WX   TEMP    WIND        PRES    VSBY  WAVE
                          AIR SEA DIR/SP/G                  HT/PER
                          (F)     (DEG/KT/KT) (MB)    (MI)  (FT/S)
HARRISON CRIB              38     320/  9/  9   N/A
BURNHAM HARBOR             37     310/  6/ 11   N/A
CALUMET HARBOR             38     290/  6/  9 1010.0R
BURNS HARBOR               36     320/  6/  8 1011.5R
MICHIGAN CITY              36     280/ 14/ 14   N/A
$$

ILZ025>027-034>036-040-047-049-050-058-095>099-241300-
WEST-CENTRAL ILLINOIS

CITY           SKY/WX    TMP DP  RH WIND       PRES   REMARKS
QUINCY         CLOUDY    33  29  85 CALM      29.87F
GALESBURG*     CLOUDY    32  32  99 CALM      29.89S
MACOMB*        CLOUDY    33  31  93 CALM      29.92S
JACKSONVILLE*  CLOUDY    36  32  87 CALM      29.90S
PITTSFIELD*    CLOUDY    35  31  84 CALM      29.90F
$$

ILZ028>032-037-038-041>044-048-051>054-059>061-241300-
CENTRAL ILLINOIS

CITY           SKY/WX    TMP DP  RH WIND       PRES   REMARKS
PONTIAC        CLOUDY    37  37 100 NW6       29.88S FOG     WCI  32
BLOOMINGTON    CLOUDY    36  34  92 W6        29.89R WCI  31
DECATUR        CLOUDY    38  36  92 W6        29.90R WCI  33
PEORIA         CLOUDY    35  33  92 W3        29.90R
6HR MIN TEMP:  35; 6HR MAX TEMP:  36;

LACON*         CLOUDY    35  33  94 CALM      29.88S
LINCOLN*       CLOUDY    37  35  93 CALM      29.90R
SPRINGFIELD    CLOUDY    38  33  82 W3        29.91R
6HR MIN TEMP:  38; 6HR MAX TEMP:  39;

TAYLORVILLE    CLOUDY    36  33  90 W6        29.90R WCI  31
6HR MIN TEMP:  36; 6HR MAX TEMP:  38;

$$

ILZ033-039-045-046-055>057-062-063-241300-
EAST-CENTRAL ILLINOIS

CITY           SKY/WX    TMP DP  RH WIND       PRES   REMARKS
CHAMPAIGN      CLOUDY    38  35  89 NW5       29.89R WCI  34
RANTOUL*       CLOUDY    39  37  94 NW6       29.89R WCI  35
MATTOON        CLOUDY    38  34  85 NW6       29.88S WCI  33
PARIS*         CLOUDY    38  37  97 W6        29.90R WCI  34
$$

ILZ079-100>102-241300-
SOUTHWEST ILLINOIS

CITY           SKY/WX    TMP DP  RH WIND       PRES   REMARKS
ALTON          CLOUDY    37  31  81 W3        29.92R
BELLEVILLE     CLOUDY    38  32  76 CALM      29.91R
CAHOKIA*       CLOUDY    40  32  73 CALM      29.91S
SPARTA*        CLOUDY    37  33  85 CALM      29.92S
$$

ILZ064>066-069>071-074>076-080>082-084>086-088>090-092>094-241300-
SOUTH-CENTRAL ILLINOIS

CITY           SKY/WX    TMP DP  RH WIND       PRES   REMARKS
CARBONDALE     CLOUDY    38  33  82 CALM      29.92R
6HR MIN TEMP:  38; 6HR MAX TEMP:  40;

CAIRO*         CLEAR     32  32 100 CALM      29.93R FOG
EFFINGHAM*     CLOUDY    39  37  93 W5        29.91S
MARION         CLOUDY    39  36  87 CALM      29.93R
MT. VERNON     CLOUDY    39  33  79 CALM      29.92R
CENTRALIA*     CLOUDY    39  36  87 W3        29.91R
SALEM*         CLOUDY    40  35  83 CALM      29.90S
METROPOLIS*    CLOUDY    40  33  76 CALM      29.93R
$$

ILZ067-068-072-073-078-083-087-091-241300-
SOUTHEAST ILLINOIS

CITY           SKY/WX    TMP DP  RH WIND       PRES   REMARKS
LAWRENCEVILLE  CLOUDY    41  35  79 NW7       29.90R
FLORA*         CLOUDY    41  36  81 NW5       29.91R
FAIRFIELD*     CLOUDY    40  34  78 CALM      29.91R
HARRISBURG*    CLOUDY    40  35  82 CALM      29.93R
ROBINSON*      CLOUDY    39  34  83 NW8       29.90S WCI  34
CARMI*         CLOUDY    40  35  80 NW6       29.92R
$$

ABBREVIATIONS USED IN REMARKS
   TC - TEMPERATURE IN CELSIUS
  WCI - WIND CHILL INDEX
   HX - HEAT INDEX
  VSB - VISIBILITY
$$




USA.gov is the U.S. government's official web portal to all federal, state and local government web resources and services.